Flag for Canada Weather past 2 weeks in Owen Sound, Ontario, Canada

Now
18 °F

Passing clouds.


Feels Like: 7 °F
Forecast: N/A
Wind: 8 mph from Northeast

Location: Wiarton

Current Time: Jan 27, 2015 at 2:48:42 PM

Latest Report: Jan 27, 2015 at 2:00 PM


Visibility: 15 mi

Pressure: 30.16 "Hg

Humidity: 62%

Dew point: 7 °F

Location of Owen SoundLocation

Historic Weather in Owen Sound — Graph

°F

Owen Sound temperature yesterday

Maximum temperature yesterday: 16 °F (at 1:00 PM)
Minimum temperature yesterday: 1 °F (at 6:00 AM)
Average temperature yesterday: 10 °F

Past Weeks' High & Low Weather Summary

 TemperatureHumidityPressure
High41 °F (Jan 17, 11:00 PM)100% (Jan 18, 1:00 PM)30.84 "Hg (Jan 18, 1:00 PM)
Low-18 °F (Jan 14, 3:00 AM)48% (Jan 16, 2:00 PM)29.44 "Hg (Jan 24, 3:00 PM)
Average15 °F80%30.07 "Hg
* Reported Jan 12 1:00 PM — Jan 27 1:00 PM, Owen Sound, Weather by CustomWeather, © 2014

Note: Actual official high and low records may vary slightly from our data, if they occured in-between our weather recording intervals... More about our weather records

Advertising

Owen Sound weather history for previous 24 hours

 ConditionsComfort  
Time TempWeatherWind HumidityBarometerVisibility
1:00 PM
Jan 27
16 °FPassing clouds.13 mph67%30.16 "Hg15 mi
12:00 PM14 °FPassing clouds.13 mph73%30.16 "Hg15 mi
11:00 AM14 °FScattered clouds.13 mph67%30.18 "Hg15 mi
10:00 AM12 °FScattered clouds.10 mph73%30.16 "Hg15 mi
9:00 AM10 °FScattered clouds.10 mph72%30.15 "Hg15 mi
8:00 AM7 °FBroken clouds.7 mph85%30.13 "Hg15 mi
7:00 AM9 °FPassing clouds.10 mph78%30.11 "Hg15 mi
6:00 AM10 °FPassing clouds.13 mph79%30.11 "Hg15 mi
5:00 AM9 °FPassing clouds.10 mph85%30.09 "Hg15 mi
4:00 AM0 °FClear.8 mph84%30.08 "Hg15 mi
3:00 AM7 °FClear.6 mph78%30.07 "Hg15 mi
2:00 AM9 °FClear.7 mph72%30.06 "Hg15 mi
1:00 AM9 °FClear.7 mph72%30.07 "Hg15 mi
12:00 AM10 °FClear.7 mph67%30.07 "Hg15 mi
11:00 PM
Jan 26
10 °FClear.8 mph61%30.08 "Hg15 mi
10:00 PM10 °FPassing clouds.8 mph61%30.06 "Hg15 mi
9:00 PM12 °FPassing clouds.7 mph62%30.06 "Hg15 mi
8:00 PM12 °FClear.7 mph62%30.07 "Hg15 mi
7:00 PM12 °FClear.7 mph62%30.06 "Hg15 mi
6:00 PM12 °FPassing clouds.8 mph67%30.05 "Hg15 mi
5:00 PM14 °FScattered clouds.12 mph62%30.04 "Hg15 mi
4:00 PM16 °FScattered clouds.14 mph62%30.03 "Hg15 mi
3:00 PM16 °FScattered clouds.13 mph62%30.01 "Hg15 mi
2:00 PM16 °FScattered clouds.9 mph62%30.02 "Hg15 mi
Weather by CustomWeather, © 2014

See weather overviewHow to use our weather pages